Location: Unspecified
(43.3116°N, 2.0147°W)
Time: 05:32:46
(UTC+02:00)

Resurs 1-4 Rocket - Visible Passes

Search period start: 04 July 2022 00:00
Search period end: 14 July 2022 00:00
Orbit: 800 x 813 km, 98.7° (Epoch: 03 July)

Date Brightness Start Highest point End Pass type
(mag) Time Alt. Az. Time Alt. Az. Time Alt. Az.
04 Jul 4.2 02:23:29 10° ENE 02:26:21 15° E 02:28:01 13° ESE visible
04 Jul 2.1 04:01:23 10° N 04:06:43 75° WNW 04:09:05 34° SSW visible
04 Jul 4.3 05:43:58 10° NW 05:45:36 11° NW 05:47:13 10° WNW visible
05 Jul 2.2 03:36:44 10° NNE 03:42:04 68° ESE 03:44:05 38° S visible
05 Jul 3.9 05:17:47 10° NNW 05:21:18 18° WNW 05:24:48 10° WSW visible
06 Jul 3.0 03:12:17 10° NNE 03:17:18 41° E 03:19:05 31° SE visible
06 Jul 3.4 04:52:26 10° N 04:56:55 28° WNW 05:00:09 16° WSW visible
07 Jul 3.6 02:48:07 10° NE 02:52:28 25° E 02:54:05 21° ESE visible
07 Jul 2.7 04:27:23 10° N 04:32:27 45° WNW 04:35:09 25° SW visible
08 Jul 4.2 02:24:33 10° NE 02:27:32 15° E 02:29:04 13° ESE visible
08 Jul 2.1 04:02:33 10° N 04:07:52 73° WNW 04:10:09 35° SSW visible
08 Jul 4.3 05:45:16 10° NW 05:46:44 11° NW 05:48:13 10° WNW visible
09 Jul 2.2 03:37:53 10° NNE 03:43:13 69° ESE 03:45:08 40° S visible
09 Jul 3.9 05:18:59 10° NNW 05:22:27 18° WNW 05:25:54 10° W visible
10 Jul 2.9 03:13:25 10° NNE 03:18:28 42° E 03:20:08 33° SE visible
10 Jul 3.4 04:53:38 10° N 04:58:04 28° WNW 05:01:12 16° WSW visible
11 Jul 3.6 02:49:15 10° NE 02:53:38 25° E 02:55:07 22° ESE visible
11 Jul 2.7 04:28:34 10° N 04:33:36 44° WNW 04:36:11 26° SW visible
12 Jul 4.1 02:25:39 10° NE 02:28:42 15° E 02:30:06 14° ESE visible
12 Jul 2.1 04:03:43 10° N 04:09:02 72° WNW 04:11:10 37° SSW visible
12 Jul 4.3 05:46:35 10° NW 05:47:53 11° NW 05:49:11 10° WNW visible
13 Jul 2.2 03:39:02 10° NNE 03:44:23 71° ESE 03:46:09 42° S visible
13 Jul 3.9 05:20:12 10° NNW 05:23:36 17° WNW 05:26:59 10° W visible
